Temperature
19 20 20 20 20 21 22 24 25 24 25 24 24 24 24 23 22 20 20 19 19 19 19 18 17 17 16 15 14 13 12 12 11 11 11 11 10 10 10 9 9 9 9 9 9 10 10 11 11
19 19 20 21 20 20 22 24 24 24 24 24 24 24 24 24 22 21 20 19 19 19 19 18 17 17 16 15 14 13 13 12 12 11 11 11 10 10 10 9 9 10 10 10 10 10 10 11 12
19 19 21 21 20 21 23 24 25 24 24 24 24 24 24 23 22 21 21 20 19 19 19 18 17 17 16 15 14 14 13 12 12 11 11 11 10 10 10 10 10 10 10 10 10 10 11 11 12
19 20 21 21 21 23 24 24 24 24 24 24 24 24 24 23 22 21 21 20 19 19 18 18 17 17 16 15 14 14 13 12 12 11 11 10 10 10 10 10 11 11 11 11 11 11 11 12 12
19 21 21 21 22 24 25 25 24 24 24 24 24 24 23 21 22 21 21 20 19 18 18 18 17 17 16 15 14 13 13 12 12 11 11 10 10 10 11 11 11 11 11 11 11 11 11 11 12
20 22 21 21 23 24 25 25 24 24 24 24 24 24 22 21 21 21 20 19 18 18 17 18 17 17 16 15 14 13 13 12 11 11 10 10 10 10 10 11 11 11 11 11 11 11 11 11 11
21 20 21 22 23 24 25 24 24 24 24 24 24 23 21 20 20 20 20 19 18 18 17 17 17 16 15 15 14 13 12 12 11 11 10 10 10 10 10 10 11 11 11 11 11 11 11 11 11
21 21 21 22 23 24 25 24 23 23 23 23 23 23 21 20 20 20 19 19 18 17 16 16 17 16 15 14 13 12 12 11 11 10 10 10 10 10 10 10 10 10 10 11 11 11 11 11 11
20 20 20 22 23 24 24 23 23 23 23 23 23 22 21 20 20 19 19 18 17 17 16 15 16 15 15 14 13 12 12 11 11 10 10 10 10 10 9 10 10 10 10 10 11 11 11 11 11
21 19 21 23 23 23 23 23 23 22 22 23 22 22 21 20 20 19 18 18 17 17 16 15 14 14 14 13 12 12 11 11 11 10 10 10 10 9 9 9 9 9 10 10 10 10 10 10 11
22 20 21 23 23 22 22 22 22 22 20 21 21 21 20 20 19 18 18 18 17 17 16 15 14 14 13 12 12 11 11 11 10 10 10 9 9 9 9 9 9 9 9 10 10 10 10 10 10
21 22 22 22 21 20 21 21 21 21 21 21 20 20 19 19 19 18 18 18 18 17 16 15 14 13 13 12 12 11 11 10 10 10 9 9 9 9 9 8 8 9 9 9 9 9 9 9 9
21 21 22 22 21 20 20 20 20 20 20 20 19 19 18 18 18 18 18 18 17 16 16 15 15 14 13 12 12 11 11 10 10 10 10 9 9 9 9 8 8 8 8 8 8 8 8 8 8
21 21 21 21 21 21 20 20 20 20 20 19 19 18 18 17 17 17 17 17 17 16 15 15 15 14 13 13 12 11 11 10 10 10 9 9 9 9 9 8 8 8 8 8 7 7 7 7 7
20 19 19 21 21 21 20 18 19 20 20 19 19 18 17 16 16 16 16 16 16 16 15 15 14 14 13 13 12 11 11 10 10 10 9 9 9 9 8 8 8 8 7 7 7 7 7 7 7
20 19 18 21 21 19 18 18 20 20 20 19 19 18 17 16 15 15 16 16 16 16 15 14 14 14 13 12 12 11 11 10 10 9 9 9 9 8 8 8 8 8 7 7 7 7 7 7 7
19 18 19 20 20 20 18 18 19 20 19 19 19 18 17 15 15 15 15 15 15 15 15 15 14 14 13 12 12 11 10 10 10 9 9 9 8 8 8 8 8 7 7 7 7 7 7 7 7
19 19 20 20 20 20 18 18 19 20 20 19 19 18 16 15 14 14 14 15 15 15 15 15 14 14 13 12 11 11 10 10 10 9 9 9 8 8 8 8 8 8 7 7 7 7 7 6 6
19 19 18 19 20 19 18 18 19 20 20 19 19 17 16 14 14 13 14 14 15 15 14 14 14 14 13 12 12 11 11 10 10 10 9 9 9 8 8 8 8 8 7 7 7 7 6 6 6
18 18 18 19 20 19 18 18 19 19 19 19 18 17 15 14 13 13 13 14 14 14 14 14 14 13 13 12 12 11 11 10 10 9 9 9 9 9 8 8 8 8 7 7 7 7 6 6 6
18 17 18 18 19 18 17 16 18 18 18 18 18 17 15 14 13 13 13 13 14 14 14 14 13 13 13 12 12 11 10 10 9 9 9 9 9 9 8 8 8 8 7 7 7 6 6 6 5
17 19 18 18 17 16 18 16 18 16 16 16 17 17 15 14 13 13 13 13 13 13 13 13 13 13 12 12 12 11 10 10 9 9 9 8 8 8 8 8 7 7 7 7 6 6 6 5 5
18 17 18 17 16 16 17 16 17 16 15 15 16 16 15 14 13 12 13 13 13 13 13 13 13 12 12 12 11 11 10 10 9 9 8 8 8 7 7 7 7 7 7 6 6 6 6 5 5
18 17 17 16 15 14 17 16 17 16 16 15 16 16 15 14 13 12 12 13 13 13 12 12 12 12 12 11 11 10 10 9 9 8 8 8 7 7 7 7 6 6 6 6 6 6 5 5 5
16 16 15 15 14 14 18 18 18 19 18 17 16 16 15 14 13 12 12 12 12 12 12 12 12 11 11 11 10 10 9 9 8 8 7 7 7 6 6 6 6 6 6 6 5 5 5 5 5
15 16 15 16 16 17 17 17 18 18 18 18 17 16 15 14 13 12 12 12 12 12 11 11 11 11 11 10 10 9 9 8 8 7 7 7 6 6 6 6 6 6 5 5 5 5 5 4 4
16 15 17 16 16 16 17 18 16 17 17 17 17 16 15 14 13 12 12 11 11 11 11 11 11 10 10 10 9 9 8 8 7 7 7 6 6 6 5 5 5 5 5 5 4 4 4 3 3
16 17 16 15 15 15 18 18 17 15 15 16 16 16 15 14 13 12 12 11 11 11 11 10 10 10 9 9 9 8 8 7 7 6 6 6 5 5 5 5 5 4 4 4 4 3 3 2 2
15 15 16 16 16 15 16 17 18 16 16 15 15 16 16 15 14 13 12 11 10 10 10 10 9 9 9 8 8 7 7 7 6 6 5 5 5 5 5 4 4 4 4 4 3 3 2 2 2
16 16 16 15 16 16 15 16 17 17 16 16 16 17 16 15 14 13 11 11 10 9 9 9 9 8 8 8 7 7 6 6 6 5 5 5 4 4 4 4 4 3 3 3 3 2 2 1 1
Wind_Speed
11 13 8 3 3 5 7 0 3 5 3 8 7 4 5 8 7 6 6 9 12 15 22 23 22 20 18 16 14 13 12 11 10 10 9 10 10 10 10 10 10 11 11 11 12 12 13 13 13
11 9 5 4 5 6 5 3 3 6 8 5 1 3 2 7 9 10 6 8 12 17 22 22 22 21 18 17 15 14 12 11 10 10 9 9 8 9 9 9 9 10 10 10 11 11 11 11 12
10 9 4 4 6 8 1 5 5 8 5 0 2 1 2 5 8 6 8 10 11 15 22 22 24 21 19 18 16 15 13 12 10 10 9 8 8 8 8 8 8 8 9 9 9 10 10 10 10
6 4 5 6 10 8 4 3 6 2 4 3 4 3 4 7 6 8 10 10 12 13 21 23 24 22 20 18 17 15 14 12 11 10 8 8 8 7 7 7 7 7 7 7 8 8 9 9 9
4 4 6 7 10 5 1 5 6 4 2 4 1 5 4 6 11 12 10 10 11 12 19 24 24 22 20 19 17 16 14 13 11 10 9 8 7 7 7 6 5 5 5 5 6 6 7 7 7
4 4 6 9 10 5 3 4 3 5 4 1 2 4 4 7 10 9 9 8 9 11 16 23 24 22 21 19 17 16 15 13 12 11 9 8 8 7 6 6 5 4 3 3 3 4 4 5 5
5 5 8 9 6 3 3 4 1 4 5 3 2 3 5 7 7 7 8 7 7 11 13 20 20 20 20 19 18 17 15 14 13 11 10 9 8 7 7 6 5 4 3 2 1 1 2 2 2
4 5 8 8 5 1 3 5 2 4 7 5 3 4 5 5 6 6 7 5 6 8 9 16 19 19 18 18 18 17 16 15 13 12 11 10 9 8 8 8 7 6 5 4 3 2 2 2 2
4 5 7 6 3 2 4 2 1 1 4 6 4 2 7 10 8 7 6 4 4 6 8 11 15 17 18 18 18 17 17 15 14 13 12 11 10 10 11 11 10 8 7 6 6 5 5 5 6
4 5 8 7 6 6 6 4 4 5 6 6 5 1 8 9 7 7 7 9 9 9 8 7 11 15 17 16 17 16 15 15 15 13 14 13 12 11 11 12 12 10 9 8 9 8 8 9 11
6 8 9 7 7 7 7 8 7 6 7 5 5 5 3 2 4 6 7 7 10 11 10 8 7 13 14 12 14 13 13 14 15 15 15 15 13 10 8 11 12 11 10 10 12 12 11 13 13
7 9 8 6 4 3 6 7 8 7 6 3 3 4 4 3 3 3 4 4 6 9 10 9 6 7 11 12 11 12 10 11 11 13 13 12 10 8 7 7 11 13 13 13 12 11 13 14 14
8 9 8 5 3 4 7 8 8 9 6 1 3 2 1 3 3 1 1 1 5 7 9 9 8 7 7 8 8 9 9 10 12 13 13 12 8 6 7 7 8 10 10 11 11 10 10 10 11
6 8 8 8 8 7 8 9 8 7 3 4 3 2 2 4 4 4 2 1 3 6 8 8 8 7 7 5 5 6 8 10 11 12 13 12 10 8 7 7 7 8 9 9 9 9 8 8 8
5 8 11 11 10 4 2 8 10 8 6 5 5 5 6 5 4 4 3 1 2 6 7 8 8 7 7 6 5 6 7 8 8 9 12 13 11 9 8 6 5 8 10 10 9 9 8 5 6
8 7 7 5 6 6 3 8 2 8 7 6 4 5 7 7 6 6 5 4 4 7 7 7 6 6 6 5 5 4 5 6 6 7 8 11 12 11 8 5 5 9 10 8 5 4 4 5 5
8 8 10 5 8 7 7 7 2 6 7 7 6 6 8 8 8 7 7 7 6 8 9 8 7 5 6 5 4 3 2 2 3 4 5 6 8 10 8 6 7 9 7 5 4 4 4 5 6
7 7 7 4 6 6 8 8 6 6 8 7 6 7 9 9 8 8 8 8 9 9 10 9 7 6 6 4 3 3 2 1 1 2 3 4 6 7 7 6 6 6 4 4 4 5 5 5 6
8 9 11 9 1 3 8 10 9 7 7 7 7 9 10 10 8 8 9 9 9 9 9 8 7 6 5 4 3 3 2 1 1 1 2 4 5 6 6 4 4 4 4 5 5 5 6 5 4
7 9 11 9 2 2 7 11 10 7 7 8 9 11 12 10 9 8 9 8 8 9 8 8 8 7 6 4 3 3 2 2 1 1 1 3 4 5 5 5 3 4 4 6 6 5 5 5 4
9 10 10 9 6 6 7 9 9 6 5 5 8 11 12 12 11 9 9 9 8 8 8 8 8 8 7 5 4 3 2 1 1 0 0 2 3 4 4 5 4 4 4 5 6 6 7 6 5
9 6 6 6 5 6 6 5 4 9 8 8 9 11 12 11 11 10 10 9 8 7 7 8 8 8 6 5 4 3 2 1 1 1 1 1 2 2 3 3 4 4 4 5 6 6 6 6 6
4 3 4 6 7 8 8 7 6 12 10 11 11 11 12 11 11 10 10 9 8 7 7 7 8 7 6 5 5 4 3 2 2 2 2 2 1 1 1 2 3 3 4 5 6 6 6 6 7
3 1 5 5 4 7 11 10 6 10 14 16 14 12 13 12 11 10 9 9 8 6 6 7 8 7 6 5 5 5 4 3 3 3 3 2 2 1 1 2 3 4 4 5 6 6 7 7 8
4 4 4 5 5 8 6 6 6 6 11 16 17 15 14 12 12 11 10 9 9 8 6 6 7 6 5 5 4 4 3 2 2 2 2 3 2 2 2 2 3 4 5 6 6 7 8 8 9
9 8 6 4 4 1 2 6 2 6 5 12 16 15 14 13 12 11 11 10 9 9 7 6 7 6 5 4 3 3 3 2 1 2 2 3 2 3 3 4 5 6 7 7 6 6 8 8 9
7 9 7 6 7 5 6 5 4 4 4 6 13 15 15 14 13 12 11 10 10 9 7 6 6 6 4 3 3 2 2 2 2 2 3 3 3 3 4 5 6 6 7 7 7 7 8 8 9
5 3 5 5 4 5 7 8 7 8 8 8 11 14 14 13 13 12 11 10 9 8 7 6 6 5 4 3 2 1 1 1 2 3 4 4 5 4 6 7 7 7 7 7 8 8 8 9 9
8 5 5 5 5 3 4 2 3 9 10 11 10 12 13 13 13 12 10 10 9 8 7 6 5 5 3 2 1 1 1 2 3 4 5 5 5 6 7 7 8 8 9 9 8 9 9 10 10
9 10 9 5 6 5 3 3 3 7 7 8 9 9 10 11 11 11 10 10 9 8 7 6 5 4 3 2 1 2 2 3 4 5 6 6 6 7 7 8 9 9 9 9 9 10 10 10 11
Wind_Direction
268 254 245 248 252 245 251 185 77 81 76 63 52 347 360 55 45 92 148 144 128 139 152 164 163 162 161 158 154 148 142 136 126 118 111 104 96 90 84 80 75 70 66 64 63 61 60 59 59
275 247 236 239 251 255 241 144 116 74 64 61 98 264 282 89 92 114 134 131 131 143 152 165 165 164 164 161 158 154 150 145 137 128 121 114 106 98 92 86 79 73 69 66 64 63 62 62 60
269 255 229 224 241 260 291 93 80 87 91 153 251 188 354 73 91 103 135 142 135 144 154 165 166 167 167 165 163 159 158 154 146 138 132 126 118 109 99 91 84 78 72 69 65 63 62 62 61
244 223 239 239 243 232 251 109 78 63 144 166 288 278 132 79 78 110 134 148 142 146 155 162 167 169 170 168 167 165 164 161 155 150 145 140 130 120 111 102 93 86 78 71 67 63 62 59 59
245 231 226 240 255 262 113 66 72 298 239 164 196 301 65 81 99 116 137 154 148 151 154 160 169 172 172 172 171 170 168 167 163 159 157 153 144 135 127 121 111 101 88 78 70 64 61 57 54
234 240 227 231 236 222 156 132 154 256 276 167 173 280 84 100 97 109 128 160 153 147 150 159 171 173 175 175 175 174 173 174 172 169 169 166 160 154 151 146 137 128 114 96 79 66 58 52 47
250 252 258 257 245 201 150 94 18 303 304 328 60 315 100 77 88 112 132 164 145 143 146 154 171 175 178 179 179 179 179 180 180 179 179 178 175 175 174 170 167 164 159 146 122 78 48 36 25
291 271 260 269 283 303 84 84 36 319 313 4 34 311 87 126 121 114 118 135 134 139 147 153 169 175 179 181 183 183 183 185 187 187 186 186 188 193 192 188 190 190 193 200 211 232 258 277 289
287 274 269 272 305 332 67 91 245 206 269 285 257 245 122 136 133 133 131 142 147 149 157 156 166 174 177 181 186 186 186 189 191 192 189 188 196 204 202 199 197 201 210 221 231 239 249 257 258
234 270 277 315 353 355 6 1 325 316 288 284 287 125 126 139 153 171 183 179 174 175 177 171 167 170 174 181 179 184 188 191 193 194 190 193 209 215 200 192 192 204 218 231 240 244 250 253 249
234 250 279 311 360 6 343 323 307 288 277 293 323 7 62 130 184 200 212 201 180 174 174 178 170 166 168 172 170 181 188 187 195 203 195 195 207 209 185 169 183 202 218 229 239 236 236 239 240
263 280 288 309 27 7 305 298 296 285 285 321 16 27 355 303 247 222 226 208 157 157 164 171 168 159 164 165 168 174 180 182 189 203 205 195 194 192 192 186 187 199 209 217 228 216 228 234 235
260 269 283 302 297 259 269 272 275 268 271 18 60 62 306 301 324 3 32 141 141 149 157 166 165 161 158 158 166 175 180 181 189 195 206 204 186 182 195 208 214 214 214 212 218 224 237 242 240
317 322 303 279 256 241 248 260 252 248 189 140 151 164 94 46 30 19 26 108 144 146 153 158 163 162 155 155 162 176 184 184 188 189 198 206 201 195 199 212 220 226 230 234 230 232 242 247 246
305 285 276 249 227 206 273 267 237 216 164 171 183 146 108 75 59 46 36 37 136 135 136 142 157 158 157 165 174 178 188 186 184 186 195 202 209 212 210 215 222 230 236 240 242 248 257 259 259
244 251 258 217 160 127 172 270 247 145 159 189 186 136 117 96 76 61 53 60 86 113 116 119 128 145 151 153 165 176 188 190 183 189 197 204 211 218 222 221 226 236 240 239 234 234 250 259 260
235 242 251 197 171 165 200 263 221 156 176 197 189 147 123 104 84 73 66 67 81 99 106 108 115 129 131 132 138 152 153 148 163 185 200 210 216 223 227 229 235 242 243 240 235 236 236 253 263
278 287 298 292 173 191 227 258 249 210 199 197 172 140 120 105 91 83 79 70 75 88 99 105 109 113 115 117 123 110 89 74 140 182 212 227 231 235 236 239 245 251 251 251 246 247 248 249 258
307 312 302 302 286 207 251 263 256 225 195 184 168 142 124 116 111 103 98 92 87 88 97 104 109 110 108 105 113 120 140 157 155 182 228 244 242 245 245 247 254 257 255 253 251 253 262 267 270
297 285 283 287 249 206 264 268 255 221 190 180 165 145 134 130 123 114 104 98 96 96 99 103 104 102 97 100 102 104 107 105 105 144 212 248 250 246 239 235 236 242 253 262 258 253 261 266 252
259 258 269 283 312 258 257 277 237 176 152 162 156 144 140 143 137 127 111 100 94 93 98 101 99 96 95 98 94 83 72 55 77 265 238 252 252 253 246 243 244 246 242 251 253 246 247 257 252
262 275 284 291 294 277 222 274 217 162 163 174 164 149 145 140 135 131 123 113 106 102 100 101 101 99 99 99 96 104 104 100 126 129 186 247 225 231 248 253 257 256 253 256 255 248 243 245 256
250 29 312 280 269 274 263 256 248 157 178 186 178 161 148 143 139 134 128 125 117 112 110 111 106 103 100 97 96 86 68 48 41 28 23 349 314 206 247 261 269 267 259 260 261 263 255 244 245
113 203 257 254 255 259 236 223 251 184 192 181 179 166 153 148 142 136 131 127 123 122 119 119 113 110 104 98 94 87 72 40 28 16 9 344 329 318 297 276 275 273 267 265 263 260 259 254 253
175 204 239 216 216 241 220 206 252 166 174 175 174 167 158 153 150 149 150 146 143 142 138 129 121 115 105 94 87 91 84 50 37 19 355 337 329 325 318 323 288 277 268 266 261 261 259 256 255
196 212 227 251 244 238 180 226 237 84 106 158 163 161 159 161 161 160 160 154 150 150 147 134 124 115 104 96 84 83 84 65 28 6 334 315 304 297 301 300 286 282 280 275 266 264 259 258 254
203 215 244 295 302 286 247 199 116 97 92 146 158 162 167 168 164 162 159 155 153 153 149 138 129 119 110 100 82 58 50 41 357 327 312 298 290 288 291 290 284 282 280 276 274 267 264 262 259
269 262 191 208 236 255 255 228 191 175 183 181 175 173 172 167 163 161 160 156 152 148 141 131 127 126 120 104 92 69 357 349 325 307 296 292 293 294 294 289 287 286 283 280 280 277 273 271 268
194 232 228 221 246 255 285 317 36 156 169 178 185 178 172 169 166 162 157 152 146 145 147 143 135 124 114 96 71 3 325 324 314 300 294 295 295 296 295 293 292 289 287 286 285 283 285 284 284
200 206 210 222 233 216 248 280 39 97 133 158 173 171 167 163 158 153 150 147 147 151 149 144 137 125 119 99 16 317 310 305 299 295 298 303 303 301 297 294 291 289 289 289 288 289 289 287 288
Height
1530 1533 1536 1538 1540 1539 1534 1525 1521 1524 1526 1529 1531 1532 1531 1533 1537 1546 1544 1542 1542 1542 1543 1544 1546 1547 1549 1550 1552 1553 1554 1555 1556 1557 1558 1558 1558 1558 1558 1558 1558 1558 1558 1558 1557 1557 1557 1557 1557
1529 1533 1537 1538 1539 1543 1533 1522 1523 1525 1528 1530 1532 1532 1531 1532 1536 1540 1541 1542 1542 1542 1542 1544 1546 1547 1549 1550 1552 1553 1554 1556 1556 1557 1558 1559 1559 1559 1559 1559 1559 1559 1558 1558 1558 1558 1557 1557 1557
1529 1533 1537 1535 1537 1537 1529 1521 1522 1525 1529 1531 1531 1531 1532 1533 1536 1539 1540 1541 1541 1541 1542 1544 1545 1547 1549 1550 1552 1553 1555 1556 1557 1558 1558 1559 1559 1560 1560 1560 1560 1559 1559 1559 1559 1559 1558 1558 1558
1531 1534 1534 1533 1532 1524 1522 1520 1522 1525 1528 1530 1531 1529 1530 1533 1535 1537 1539 1540 1541 1541 1542 1543 1545 1547 1548 1550 1552 1553 1555 1556 1557 1558 1559 1559 1560 1560 1560 1560 1560 1560 1560 1560 1560 1559 1559 1559 1559
1531 1532 1533 1533 1527 1518 1517 1520 1524 1526 1526 1528 1529 1529 1531 1533 1533 1536 1538 1539 1540 1540 1541 1542 1544 1546 1548 1549 1551 1553 1554 1556 1557 1558 1559 1560 1560 1561 1561 1561 1561 1561 1561 1561 1561 1560 1560 1560 1560
1532 1529 1533 1534 1524 1517 1517 1520 1524 1526 1526 1527 1529 1529 1532 1533 1533 1535 1536 1538 1540 1540 1540 1541 1543 1545 1547 1549 1551 1552 1554 1556 1557 1558 1559 1560 1560 1561 1561 1561 1561 1561 1561 1561 1561 1561 1561 1561 1560
1531 1529 1529 1524 1520 1517 1517 1520 1523 1525 1526 1526 1527 1529 1532 1533 1533 1534 1535 1537 1539 1539 1539 1539 1542 1543 1545 1547 1549 1551 1553 1555 1556 1558 1559 1560 1560 1561 1561 1561 1561 1561 1561 1562 1561 1561 1561 1561 1561
1529 1527 1526 1523 1520 1519 1517 1521 1525 1527 1527 1528 1528 1530 1531 1533 1533 1533 1534 1536 1537 1538 1538 1538 1540 1542 1544 1546 1548 1550 1552 1554 1556 1557 1558 1559 1560 1560 1561 1561 1561 1561 1561 1561 1561 1561 1561 1561 1561
1529 1531 1529 1521 1520 1518 1518 1522 1525 1526 1527 1528 1528 1529 1529 1530 1531 1531 1532 1533 1535 1535 1536 1537 1538 1540 1542 1544 1547 1549 1551 1553 1554 1556 1557 1558 1559 1559 1560 1560 1561 1561 1561 1561 1561 1561 1561 1561 1561
1528 1532 1526 1518 1518 1519 1520 1522 1524 1525 1526 1526 1526 1527 1526 1527 1528 1529 1530 1531 1531 1533 1534 1536 1537 1538 1540 1543 1545 1547 1549 1551 1553 1554 1555 1556 1557 1559 1559 1559 1560 1560 1560 1560 1560 1560 1560 1560 1559
1525 1526 1522 1519 1520 1521 1522 1524 1524 1525 1525 1526 1525 1525 1525 1526 1527 1527 1528 1529 1529 1530 1531 1534 1536 1537 1539 1541 1543 1545 1547 1549 1551 1552 1554 1555 1556 1557 1558 1558 1558 1559 1559 1558 1558 1558 1558 1558 1557
1523 1522 1520 1520 1521 1522 1524 1524 1524 1523 1523 1524 1523 1523 1523 1524 1524 1525 1526 1527 1527 1527 1529 1531 1534 1536 1538 1540 1542 1543 1545 1547 1549 1550 1552 1554 1555 1555 1556 1557 1557 1556 1556 1556 1556 1556 1556 1555 1555
1522 1521 1520 1519 1520 1522 1523 1522 1522 1521 1521 1521 1521 1521 1521 1521 1522 1522 1522 1523 1524 1525 1526 1528 1531 1534 1536 1538 1540 1542 1544 1545 1547 1548 1550 1552 1553 1553 1554 1554 1555 1555 1555 1554 1554 1554 1554 1554 1553
1521 1520 1519 1518 1518 1519 1519 1519 1519 1516 1517 1518 1519 1519 1520 1520 1519 1519 1520 1520 1521 1522 1524 1526 1528 1531 1534 1536 1538 1540 1542 1544 1545 1546 1548 1549 1550 1551 1551 1552 1552 1552 1553 1553 1552 1552 1551 1551 1550
1521 1521 1518 1513 1513 1515 1518 1518 1513 1512 1515 1516 1517 1518 1518 1518 1518 1517 1517 1518 1519 1520 1522 1523 1526 1529 1531 1534 1536 1538 1540 1542 1543 1544 1545 1546 1547 1548 1549 1549 1549 1549 1550 1549 1549 1548 1548 1547 1546
1520 1521 1520 1508 1509 1513 1521 1520 1508 1509 1512 1514 1516 1516 1517 1517 1517 1516 1516 1516 1517 1518 1520 1521 1524 1527 1529 1532 1534 1536 1538 1540 1541 1542 1543 1543 1544 1545 1545 1546 1546 1546 1546 1546 1545 1544 1543 1542 1541
1518 1521 1516 1509 1508 1510 1516 1516 1509 1509 1510 1512 1513 1515 1516 1517 1517 1516 1515 1515 1516 1517 1518 1520 1523 1525 1528 1530 1532 1534 1536 1537 1538 1539 1540 1540 1541 1541 1542 1542 1542 1542 1542 1542 1541 1540 1539 1538 1536
1518 1515 1511 1509 1506 1508 1512 1511 1507 1507 1507 1508 1510 1513 1514 1516 1517 1516 1515 1515 1516 1517 1518 1520 1522 1524 1526 1528 1530 1532 1534 1535 1535 1536 1537 1537 1537 1538 1538 1538 1538 1538 1538 1537 1536 1536 1535 1533 1531
1512 1515 1516 1510 1505 1507 1509 1508 1504 1502 1503 1505 1508 1511 1513 1515 1517 1517 1516 1516 1517 1518 1519 1520 1522 1524 1526 1527 1529 1530 1532 1532 1533 1533 1534 1534 1534 1534 1534 1534 1534 1533 1533 1532 1532 1531 1530 1528 1527
1514 1518 1516 1510 1504 1507 1507 1504 1498 1497 1498 1501 1504 1508 1511 1515 1517 1517 1517 1517 1518 1518 1520 1521 1523 1524 1526 1527 1528 1530 1530 1531 1531 1532 1531 1531 1531 1531 1530 1530 1529 1529 1528 1528 1527 1526 1525 1523 1523
1514 1517 1514 1512 1506 1505 1508 1506 1495 1494 1496 1499 1502 1506 1510 1513 1515 1517 1517 1518 1519 1519 1521 1522 1523 1525 1526 1527 1528 1529 1529 1530 1530 1530 1529 1529 1529 1528 1527 1527 1526 1525 1525 1524 1523 1522 1520 1519 1518
1515 1508 1508 1509 1515 1514 1507 1516 1495 1494 1496 1498 1501 1504 1508 1512 1514 1516 1516 1518 1519 1520 1521 1523 1524 1525 1526 1527 1528 1528 1529 1529 1529 1528 1528 1527 1526 1526 1525 1524 1523 1522 1521 1520 1519 1518 1516 1515 1513
1507 1507 1508 1510 1514 1516 1508 1511 1497 1492 1497 1497 1499 1502 1506 1510 1512 1514 1516 1517 1519 1520 1521 1523 1524 1525 1526 1527 1527 1527 1528 1528 1527 1527 1526 1525 1524 1523 1522 1521 1520 1519 1517 1516 1515 1513 1512 1510 1508
1505 1509 1510 1511 1515 1522 1502 1506 1496 1489 1486 1491 1495 1499 1503 1508 1511 1513 1515 1516 1518 1520 1521 1522 1524 1524 1525 1526 1526 1526 1526 1526 1525 1524 1523 1523 1522 1520 1519 1518 1517 1515 1514 1512 1510 1509 1507 1505 1502
1508 1515 1521 1522 1526 1516 1488 1492 1487 1473 1473 1480 1488 1495 1500 1505 1508 1511 1513 1515 1517 1519 1520 1522 1523 1523 1524 1525 1525 1524 1524 1523 1522 1522 1521 1520 1518 1517 1516 1515 1513 1511 1509 1507 1505 1503 1501 1499 1496
1507 1508 1517 1516 1511 1498 1493 1493 1480 1472 1471 1476 1484 1491 1497 1502 1506 1508 1511 1513 1515 1517 1519 1520 1521 1522 1522 1523 1523 1522 1522 1521 1520 1519 1518 1516 1515 1514 1512 1510 1508 1506 1504 1502 1499 1496 1494 1491 1489
1500 1503 1498 1505 1502 1503 1492 1479 1480 1474 1475 1478 1483 1488 1493 1498 1503 1506 1509 1511 1513 1515 1517 1518 1519 1520 1520 1520 1520 1520 1519 1518 1517 1516 1514 1513 1511 1510 1508 1506 1503 1501 1498 1496 1493 1489 1487 1484 1481
1494 1493 1499 1506 1511 1510 1489 1480 1480 1481 1479 1479 1481 1485 1490 1495 1499 1503 1506 1509 1511 1513 1515 1516 1517 1518 1518 1518 1517 1517 1516 1515 1514 1512 1511 1509 1507 1505 1503 1500 1498 1495 1492 1489 1486 1482 1479 1476 1473
1494 1495 1493 1494 1494 1502 1499 1485 1468 1470 1472 1476 1479 1482 1487 1491 1496 1500 1503 1506 1508 1511 1512 1514 1515 1515 1515 1515 1514 1514 1513 1511 1510 1508 1507 1505 1502 1500 1497 1494 1491 1488 1485 1482 1478 1474 1471 1468 1464
1483 1486 1489 1497 1492 1489 1497 1490 1469 1468 1469 1473 1477 1480 1484 1488 1492 1496 1500 1503 1506 1508 1510 1511 1511 1512 1512 1512 1511 1510 1509 1508 1506 1504 1502 1500 1497 1495 1492 1488 1485 1481 1478 1474 1470 1466 1463 1459 1455